This is the latest recevied weather packets stored in our database for station/object KB1WCR. If no packets are shown the sender has not sent any weather packets the latest 10 day(s).
| Time | Temp. | Humidity | Pressure | Rain* | Wind** | Luminosity | Snow |
|---|---|---|---|---|---|---|---|
| 1777847836 | 10.56° C | 51% | 1005 hPa | 0 mm | - | 57 W/m² | - |
| 1777847534 | 10.56° C | 49% | 1005 hPa | 0 mm | - | 78 W/m² | - |
| 1777847230 | 10° C | 50% | 1004.9 hPa | 0 mm | - | 84 W/m² | - |
| 1777846928 | 10° C | 50% | 1004.8 hPa | 0 mm | - | 64 W/m² | - |
| 1777846626 | 10° C | 51% | 1004.8 hPa | 0 mm | - | 63 W/m² | - |
| 1777846323 | 10° C | 51% | 1004.7 hPa | 0 mm | - | 57 W/m² | - |
| 1777846020 | 10° C | 51% | 1004.7 hPa | 0 mm | - | 58 W/m² | - |
| 1777845716 | 10° C | 51% | 1004.7 hPa | 0 mm | - | 61 W/m² | - |
| 1777845413 | 10° C | 53% | 1004.7 hPa | 0 mm | - | 79 W/m² | - |
| 1777845109 | 10° C | 55% | 1004.5 hPa | 0 mm | - | 104 W/m² | - |
| 1777844809 | 10° C | 54% | 1004.6 hPa | 0 mm | - | 94 W/m² | - |
| 1777844504 | 10° C | 52% | 1004.6 hPa | 0 mm | - | 98 W/m² | - |
| 1777844198 | 10° C | 54% | 1004.5 hPa | 0 mm | - | 64 W/m² | - |
| 1777843894 | 10° C | 55% | 1004.6 hPa | 0 mm | - | 56 W/m² | - |
| 1777843591 | 10.56° C | 55% | 1004.6 hPa | 0 mm | - | 53 W/m² | - |
| 1777843289 | 10.56° C | 54% | 1004.4 hPa | 0 mm | - | 53 W/m² | - |
| 1777842987 | 10.56° C | 54% | 1004.3 hPa | 0 mm | - | 64 W/m² | - |
| 1777842682 | 10.56° C | 55% | 1004.2 hPa | 0 mm | - | 70 W/m² | - |
| 1777842378 | 10.56° C | 55% | 1004.1 hPa | 0 mm | - | 74 W/m² | - |
| 1777842075 | 10.56° C | 54% | 1004.2 hPa | 0 mm | - | 88 W/m² | - |
| 1777841771 | 10.56° C | 55% | 1004.2 hPa | 0 mm | - | 94 W/m² | - |
| 1777841467 | 10.56° C | 52% | 1004.1 hPa | 0 mm | - | 114 W/m² | - |
| 1777841164 | 10.56° C | 53% | 1004.2 hPa | 0 mm | - | 125 W/m² | - |
| 1777840862 | 10.56° C | 54% | 1004.2 hPa | 0 mm | - | 158 W/m² | - |
| 1777840558 | 10.56° C | 53% | 1004.2 hPa | 0 mm | - | 154 W/m² | - |
* Rain latest hour (hover to see other rain measurements)
** Current wind speed in m/s (hover to see current wind gust speed)